CW5439 Weather Reports


Display with metric or nautical units.
time (UTC)temp
F
wind
direction
speed
MPH
gust
MPH
rain 1hr
in
rain 24hr
in
rain mn
in
humidity
%
barometer
mb
20260506134705 52 114 5.0 10.0 0.00 0.00 0.00 46 1014.3
20260506134205 51 101 5.0 10.0 0.00 0.00 0.00 48 1014.4
20260506133705 51 118 5.0 10.0 0.00 0.00 0.00 49 1014.4
20260506133205 51 134 4.0 11.0 0.00 0.00 0.00 49 1014.5
20260506132706 51 139 4.0 12.0 0.00 0.00 0.00 51 1014.5
20260506132206 51 130 5.0 12.0 0.00 0.00 0.00 51 1014.6
20260506131705 51 64 4.0 12.0 0.00 0.00 0.00 50 1014.6
20260506131205 52 98 5.0 12.0 0.00 0.00 0.00 51 1014.6
20260506130705 52 115 5.0 11.0 0.00 0.00 0.00 49 1014.5
20260506130206 52 125 5.0 12.0 0.00 0.00 0.00 53 1014.5
20260506125705 52 107 5.0 12.0 0.00 0.00 0.00 53 1014.6
20260506125205 52 113 5.0 12.0 0.00 0.00 0.00 52 1014.6
20260506124705 53 44 7.0 12.0 0.00 0.00 0.00 52 1014.7
20260506124205 52 105 7.0 12.0 0.00 0.00 0.00 53 1014.7
20260506123705 52 107 6.0 10.0 0.00 0.00 0.00 53 1014.7
20260506123206 52 150 5.0 12.0 0.00 0.00 0.00 51 1014.7
20260506122705 53 107 6.0 14.0 0.00 0.00 0.00 52 1014.6
20260506122206 52 116 7.0 14.0 0.00 0.00 0.00 52 1014.6
20260506121705 53 94 7.0 12.0 0.00 0.00 0.00 50 1014.6
20260506120705 52 74 7.0 16.0 0.00 0.00 0.00 51 1014.7
20260506120206 52 86 7.0 16.0 0.00 0.00 0.00 54 1014.6
20260506115704 53 150 7.0 16.0 0.00 0.00 0.00 53 1014.7
20260506114705 53 123 7.0 13.0 0.00 0.00 0.00 52 1014.9
20260506114206 53 65 6.0 13.0 0.00 0.00 0.00 52 1014.9
20260506113705 52 102 5.0 12.0 0.00 0.00 0.00 53 1015.0
20260506113206 51 120 6.0 15.0 0.00 0.00 0.00 54 1015.0
20260506112704 50 78 7.0 15.0 0.00 0.00 0.00 56 1015.1
20260506111705 51 141 6.0 12.0 0.00 0.00 0.00 58 1015.1
20260506111205 52 114 5.0 12.0 0.00 0.00 0.00 52 1015.3
20260506110706 53 114 5.0 12.0 0.00 0.00 0.00 53 1015.1
20260506105705 52 123 6.0 12.0 0.00 0.00 0.00 54 1015.1
20260506105206 53 118 6.0 13.0 0.00 0.00 0.00 53 1015.3
20260506104705 52 117 6.0 13.0 0.00 0.00 0.00 55 1015.1
20260506104205 53 138 6.0 13.0 0.00 0.00 0.00 51 1015.3
20260506103705 53 92 5.0 11.0 0.00 0.00 0.00 55 1015.3
20260506103205 52 140 5.0 11.0 0.00 0.00 0.00 53 1015.3
20260506102705 52 106 5.0 13.0 0.00 0.00 0.00 55 1015.3
20260506102205 53 144 5.0 13.0 0.00 0.00 0.00 53 1015.4
20260506101705 53 148 6.0 13.0 0.00 0.00 0.00 53 1015.3
20260506101205 53 106 5.0 12.0 0.00 0.00 0.00 54 1015.4
20260506100704 52 80 5.0 11.0 0.00 0.00 0.00 57 1015.4
20260506095705 53 101 6.0 11.0 0.00 0.00 0.00 55 1015.5
20260506095206 53 108 5.0 10.0 0.00 0.00 0.00 56 1015.5
20260506094705 51 84 5.0 10.0 0.00 0.00 0.00 59 1015.6
20260506094205 51 124 5.0 11.0 0.00 0.00 0.00 60 1015.6
20260506093706 50 97 6.0 11.0 0.00 0.00 0.00 62 1015.6
20260506093205 51 150 5.0 11.0 0.00 0.00 0.00 60 1015.6
20260506092705 51 91 5.0 10.0 0.00 0.00 0.00 62 1015.6
20260506092206 51 64 4.0 8.0 0.00 0.00 0.00 61 1015.6
20260506091707 50 155 3.0 10.0 0.00 0.00 0.00 60 1015.7
20260506091205 49 157 5.0 10.0 0.00 0.00 0.00 61 1015.7
20260506090704 49 113 4.0 10.0 0.00 0.00 0.00 59 1015.7
20260506090207 48 104 3.0 8.0 0.00 0.00 0.00 64 1015.7
20260506085705 47 186 3.0 8.0 0.00 0.00 0.00 65 1015.8
20260506085206 47 120 2.0 7.0 0.00 0.00 0.00 68 1015.8
20260506084706 46 25 3.0 7.0 0.00 0.00 0.00 71 1015.8
20260506084205 46 80 2.0 5.0 0.00 0.00 0.00 67 1015.9
20260506083705 46 117 2.0 7.0 0.00 0.00 0.00 68 1016.0
20260506083205 46 117 2.0 7.0 0.00 0.00 0.00 69 1016.0
20260506082206 46 119 3.0 6.0 0.00 0.00 0.00 68 1016.0
20260506081705 46 136 3.0 6.0 0.00 0.00 0.00 67 1016.0
20260506081205 46 99 3.0 6.0 0.00 0.00 0.00 67 1016.0
20260506080705 47 126 3.0 7.0 0.00 0.00 0.00 69 1016.0
20260506080205 46 111 3.0 7.0 0.00 0.00 0.00 69 1015.9
20260506073205 44 111 2.0 7.0 0.00 0.00 0.00 75 1016.0
20260506072705 44 41 2.0 7.0 0.00 0.00 0.00 76 1016.1
20260506072206 43 86 2.0 7.0 0.00 0.00 0.00 77 1016.0
20260506071706 42 42 2.0 4.0 0.00 0.00 0.00 79 1016.0
20260506071205 42 44 2.0 4.0 0.00 0.00 0.00 80 1016.0
20260506070705 42 47 2.0 4.0 0.00 0.00 0.00 80 1016.0
20260506070205 42 57 2.0 3.0 0.00 0.00 0.00 81 1016.0
20260506062206 39 70 0.0 0.0 0.00 0.00 0.00 84 1015.9
20260506061706 39 70 0.0 0.0 0.00 0.00 0.00 84 1016.0
20260506061205 39 70 0.0 0.0 0.00 0.00 0.00 85 1016.0
20260506060703 38 70 0.0 2.0 0.00 0.00 0.00 85 1016.0
20260506060229 38 70 0.0 2.0 0.00 0.00 0.00 85 1015.9
20260506051205 36 70 0.0 1.0 0.00 0.00 0.00 83 1016.0
20260506050705 36 70 0.0 1.0 0.00 0.00 0.00 83 1016.1
20260506050205 36 70 0.0 1.0 0.00 0.00 0.00 83 1016.1
20260506044705 36 70 0.0 2.0 0.00 0.00 0.00 83 1016.0
20260506043705 36 70 1.0 2.0 0.00 0.00 0.00 82 1016.0
20260506043205 36 70 1.0 2.0 0.00 0.00 0.00 82 1016.0
20260506042713 36 70 0.0 1.0 0.00 0.00 0.00 82 1016.0
20260506042206 36 70 0.0 1.0 0.00 0.00 0.00 81 1015.9
20260506041705 36 70 0.0 2.0 0.00 0.00 0.00 81 1016.0
20260506041210 36 70 1.0 2.0 0.00 0.00 0.00 81 1015.9
20260506040705 36 70 1.0 2.0 0.00 0.00 0.00 80 1016.0
20260506040205 36 70 0.0 1.0 0.00 0.00 0.00 80 1015.9
20260506035705 36 70 0.0 2.0 0.00 0.00 0.00 79 1016.0
20260506035206 36 70 0.0 2.0 0.00 0.00 0.00 79 1016.0
20260506034705 37 70 1.0 2.0 0.00 0.00 0.00 79 1015.9
20260506034205 37 70 1.0 2.0 0.00 0.00 0.00 79 1016.0
20260506033705 37 70 1.0 2.0 0.00 0.00 0.00 79 1016.0
20260506032705 37 70 1.0 3.0 0.00 0.00 0.00 78 1016.1
20260506031705 37 77 1.0 3.0 0.00 0.00 0.00 78 1016.1
20260506031205 38 77 2.0 3.0 0.00 0.00 0.00 78 1016.1
20260506030205 38 78 1.0 4.0 0.00 0.00 0.00 77 1016.2
20260506025704 38 78 1.0 4.0 0.00 0.00 0.00 77 1016.2
20260506025221 38 78 2.0 4.0 0.00 0.00 0.00 77 1016.1
20260506024706 38 76 2.0 4.0 0.00 0.00 0.00 77 1016.1
20260506024205 38 77 1.0 2.0 0.00 0.00 0.00 77 1016.1
20260506023205 39 77 1.0 3.0 0.00 0.00 0.00 76 1016.2
20260506022706 39 77 1.0 4.0 0.00 0.00 0.00 76 1016.2
20260506022205 39 76 2.0 4.0 0.00 0.00 0.00 76 1016.2
20260506021208 39 71 2.0 4.0 0.00 0.00 0.00 75 1016.1
20260506020705 39 71 2.0 4.0 0.00 0.00 0.00 76 1016.2
20260506020206 39 57 2.0 4.0 0.00 0.00 0.00 75 1016.3
20260506015705 39 67 2.0 4.0 0.00 0.00 0.00 75 1016.3
20260506015206 39 69 2.0 4.0 0.00 0.00 0.00 75 1016.3
20260506014205 39 64 2.0 4.0 0.00 0.00 0.00 75 1016.4
20260506013204 39 66 3.0 5.0 0.00 0.00 0.00 75 1016.4
20260506012705 39 68 3.0 5.0 0.00 0.00 0.00 75 1016.4
20260506012206 39 58 3.0 5.0 0.00 0.00 0.00 76 1016.4
20260506011705 39 76 3.0 5.0 0.00 0.00 0.00 76 1016.4
20260506011205 39 83 3.0 4.0 0.00 0.00 0.00 77 1016.5
20260506010705 39 70 3.0 4.0 0.00 0.00 0.00 77 1016.5
20260506010227 39 71 2.0 4.0 0.00 0.00 0.00 78 1016.5
20260506005205 39 44 1.0 3.0 0.00 0.00 0.00 79 1016.7
20260506004205 39 51 2.0 3.0 0.00 0.00 0.00 78 1016.7
20260506003707 39 36 2.0 3.0 0.00 0.00 0.00 78 1016.7
20260506003205 39 42 1.0 3.0 0.00 0.00 0.00 78 1016.7
20260506002705 39 50 2.0 3.0 0.00 0.00 0.00 78 1016.7
20260506002206 39 55 2.0 4.0 0.00 0.00 0.00 78 1016.7
20260506001705 39 51 2.0 4.0 0.00 0.00 0.00 78 1016.6
20260506001205 39 56 2.0 4.0 0.00 0.00 0.00 78 1016.6
20260506000705 39 41 2.0 3.0 0.00 0.00 0.00 78 1016.6
20260506000205 39 54 2.0 3.0 0.00 0.00 0.00 78 1016.6
20260505235705 39 51 2.0 4.0 0.00 0.00 0.00 78 1016.6
20260505235206 39 47 2.0 4.0 0.00 0.00 0.00 78 1016.7
20260505234231 39 38 2.0 4.0 0.00 0.00 0.00 77 1016.7
20260505233708 39 57 2.0 3.0 0.00 0.00 0.00 77 1016.7
20260505233205 39 57 2.0 4.0 0.00 0.00 0.00 77 1016.7
20260505232706 40 42 2.0 4.0 0.00 0.00 0.00 77 1016.8
20260505232205 40 73 2.0 3.0 0.00 0.00 0.00 76 1016.7
20260505231725 40 61 2.0 3.0 0.00 0.00 0.00 76 1016.7
20260505231205 40 47 2.0 3.0 0.00 0.00 0.00 76 1016.8
20260505230205 40 55 2.0 4.0 0.00 0.00 0.00 76 1016.8
20260505225705 40 54 2.0 4.0 0.00 0.00 0.00 76 1016.8
20260505225205 41 49 2.0 4.0 0.00 0.00 0.00 75 1016.8
20260505224731 41 57 1.0 4.0 0.00 0.00 0.00 75 1016.8
20260505224205 41 57 1.0 4.0 0.00 0.00 0.00 75 1016.8
20260505223206 41 69 2.0 4.0 0.00 0.00 0.00 75 1016.8
20260505222705 41 59 2.0 6.0 0.00 0.00 0.00 75 1016.8
20260505222206 41 47 2.0 6.0 0.00 0.00 0.00 75 1016.8
20260505221705 41 52 3.0 6.0 0.00 0.00 0.00 75 1016.8
20260505221204 41 82 3.0 4.0 0.00 0.00 0.00 75 1016.8
20260505220705 41 67 3.0 4.0 0.00 0.00 0.00 75 1016.9
20260505220205 41 57 2.0 4.0 0.00 0.00 0.00 75 1016.9
20260505215205 41 60 2.0 5.0 0.00 0.00 0.00 74 1017.0
20260505214705 41 65 2.0 5.0 0.00 0.00 0.00 74 1016.9
20260505214205 41 61 2.0 5.0 0.00 0.00 0.00 74 1016.9
20260505213205 41 49 3.0 7.0 0.00 0.00 0.00 74 1016.9
20260505212705 42 71 3.0 7.0 0.00 0.00 0.00 73 1016.8
20260505212206 42 57 3.0 5.0 0.00 0.00 0.00 73 1016.8
20260505211205 42 51 3.0 6.0 0.00 0.00 0.00 72 1016.9
20260505210206 42 60 3.0 6.0 0.00 0.00 0.00 72 1016.8
20260505205705 42 65 3.0 6.0 0.00 0.00 0.00 72 1016.8
20260505205211 42 42 3.0 6.0 0.00 0.00 0.00 72 1016.8
20260505204707 42 52 4.0 6.0 0.00 0.00 0.00 72 1016.8
20260505204205 43 69 3.0 5.0 0.00 0.00 0.00 71 1016.8
20260505203705 43 53 3.0 7.0 0.00 0.00 0.00 71 1016.8
20260505202705 43 66 4.0 9.0 0.00 0.00 0.00 71 1016.8
20260505202206 43 65 4.0 9.0 0.00 0.00 0.00 70 1016.8
20260505201206 43 63 4.0 9.0 0.00 0.00 0.00 71 1016.8
20260505200705 43 83 5.0 9.0 0.00 0.00 0.00 71 1016.8
20260505195705 44 69 5.0 10.0 0.00 0.00 0.00 72 1016.7
20260505194705 44 73 5.0 10.0 0.00 0.00 0.00 71 1016.7
20260505194206 44 55 5.0 10.0 0.00 0.00 0.00 71 1016.7
20260505193704 44 92 5.0 12.0 0.00 0.00 0.00 71 1016.6
20260505192705 44 61 6.0 13.0 0.00 0.00 0.00 71 1016.6
20260505191704 44 107 6.0 12.0 0.00 0.00 0.00 70 1016.5
20260505191205 44 96 6.0 14.0 0.00 0.00 0.00 70 1016.5
20260505190705 44 105 6.0 14.0 0.00 0.00 0.00 70 1016.5
20260505190205 44 86 7.0 14.0 0.00 0.00 0.00 70 1016.4
20260505185206 44 82 6.0 12.0 0.00 0.00 0.00 70 1016.4
20260505184705 44 70 7.0 14.0 0.00 0.00 0.00 70 1016.4
20260505184205 44 105 8.0 14.0 0.00 0.00 0.00 71 1016.4
20260505183711 44 105 9.0 16.0 0.00 0.00 0.00 71 1016.4
20260505183205 44 78 8.0 16.0 0.00 0.00 0.00 70 1016.4
20260505182705 44 96 9.0 16.0 0.00 0.00 0.00 70 1016.4
20260505182205 44 101 8.0 15.0 0.00 0.00 0.00 69 1016.3
20260505181732 45 51 7.0 15.0 0.00 0.00 0.00 70 1016.4
20260505181229 45 55 7.0 15.0 0.00 0.00 0.00 71 1016.4
20260505180705 45 80 9.0 16.0 0.00 0.00 0.00 70 1016.4
20260505180205 45 113 10.0 16.0 0.00 0.00 0.00 70 1016.4
20260505175705 45 84 10.0 16.0 0.00 0.00 0.00 69 1016.4
20260505175205 45 51 10.0 15.0 0.00 0.00 0.00 70 1016.4
20260505174705 45 112 9.0 15.0 0.00 0.00 0.00 69 1016.3
20260505174205 45 74 8.0 15.0 0.00 0.00 0.00 69 1016.4
20260505173705 45 114 8.0 14.0 0.00 0.00 0.00 68 1016.4
20260505173205 45 96 9.0 13.0 0.00 0.00 0.00 68 1016.3
20260505172705 46 46 9.0 14.0 0.00 0.00 0.00 69 1016.3
20260505172206 46 75 8.0 16.0 0.00 0.00 0.00 69 1016.2
20260505171705 45 70 8.0 18.0 0.00 0.00 0.00 69 1016.3
20260505171205 45 73 10.0 18.0 0.00 0.00 0.00 69 1016.3
20260505170704 46 118 10.0 16.0 0.00 0.00 0.00 69 1016.3
20260505170205 46 94 10.0 16.0 0.00 0.00 0.00 69 1016.3
20260505165705 46 80 9.0 16.0 0.00 0.00 0.00 69 1016.3
20260505165205 46 95 8.0 14.0 0.00 0.00 0.00 69 1016.2
20260505164705 46 96 9.0 16.0 0.00 0.00 0.00 68 1016.2
20260505164205 46 86 9.0 17.0 0.00 0.00 0.00 69 1016.1
20260505163705 46 92 9.0 17.0 0.00 0.00 0.00 69 1016.1
20260505163205 46 107 9.0 17.0 0.00 0.00 0.00 70 1016.1
20260505162705 46 98 8.0 16.0 0.00 0.00 0.00 70 1016.1
20260505162206 46 93 9.0 15.0 0.00 0.00 0.00 71 1016.1
20260505161706 46 83 9.0 16.0 0.00 0.00 0.00 71 1016.1
20260505161205 46 86 9.0 17.0 0.00 0.00 0.00 72 1016.2
20260505160705 46 81 9.0 18.0 0.00 0.00 0.00 73 1016.2
20260505160205 45 81 9.0 18.0 0.00 0.00 0.00 73 1016.2
20260505153205 46 59 10.0 16.0 0.00 0.00 0.00 75 1016.1
20260505152206 46 103 9.0 16.0 0.00 0.00 0.00 74 1016.1
20260505151705 46 98 10.0 16.0 0.00 0.00 0.00 75 1016.1
20260505151205 46 87 10.0 16.0 0.00 0.00 0.00 74 1016.2
20260505150704 46 132 9.0 15.0 0.00 0.00 0.00 75 1016.2
20260505150206 46 74 8.0 15.0 0.00 0.00 0.00 75 1016.1
20260505140205 49 69 11.0 15.0 0.00 0.00 0.00 73 1015.7